Location: *
(55.6049°S, 142.1985°W)
Time: 15:57:15
(UTC+00:00)

Meteor 1-4 Rocket - Pass Details

Date: 12 May 2021
Orbit: 447 x 499 km, 81.2° (Epoch: 17 June)

Event Time Altitude Azimuth Distance (km) Brightness Sun altitude
Rises 15:22:19 0° 11° (N) 2,513 6.5 -15.4°
Reaches altitude 10° 15:24:32 10° 20° (NNE) 1,636 5.6 -15.1°
Maximum altitude 15:27:46 33° 85° (E) 819 4.5 -14.7°
Drops below altitude 10° 15:31:00 10° 150° (SSE) 1,637 5.5 -14.2°
Sets 15:33:13 0° 159° (SSE) 2,516 6.3 -13.9°
